Regional Weather Roundup
Issued by NWS Northern Indiana

Home | Current Version | Previous Version | Graphics & Text | Print | Product List | Glossary On
Versions: 1 2 3 4 5 6 7 8 9 10 11 12 13 14 15 16 17 18 19 20 21 22 23 24 25 26 27 28 29 30 31 32 33 34 35 36 37 38 39 40 41 42 43 44 45 46 47 48 49 50
000
ASUS43 KIWX 270800
RWRIWX

KIWX WEATHER ROUNDUP
NATIONAL WEATHER SERVICE NORTHERN INDIANA
400 AM EDT WED AUG 27 2014

NOTE: "FAIR" INDICATES FEW OR NO CLOUDS BELOW 12,000 FEET WITH NO
SIGNIFICANT WEATHER AND/OR OBSTRUCTIONS TO VISIBILITY.

* THESE STATIONS ARE NOT UNDER NWS QUALITY CONTROL. THEY ALSO MAY NOT
  REPORT WEATHER SUCH AS PRECIPITATION OR FOG.

INZ001>027-270900-
NORTHERN INDIANA

CITY           SKY/WX    TMP DP  RH WIND       PRES   REMARKS
VALPARAISO     MOCLDY    67  65  93 E5        30.11S
KNOX*          PTCLDY    66  64  93 NE3       30.10S
SOUTH BEND     FOG       65  64  97 N3        30.11F VSB 3/4
GOSHEN         PTCLDY    69  65  86 N6        30.10F
MONTICELLO*    MOCLDY    68  68  99 CALM      30.09R
WARSAW*        FOG       68  68 100 N3        30.10S VSB 1/2
ANGOLA*        CLEAR     68  59  73 N3        30.10S
FORT WAYNE     CLOUDY    70  68  93 W3        30.10S

$$
INZ028>050-270900-
CENTRAL INDIANA

CITY           SKY/WX    TMP DP  RH WIND       PRES   REMARKS
LAFAYETTE      MOCLDY    67  67 100 CALM      30.08S FOG
KOKOMO*        MOCLDY    70  66  88 N7        30.10R
MUNCIE*        CLOUDY    71  68  90 CALM      30.10S
INDIANAPOLIS   CLOUDY    72  69  90 CALM      30.08S

$$
MIZ043>046-050>051-056>058-064>065-071>073-077>080-270900-
SOUTHWEST LOWER MICHIGAN

CITY           SKY/WX    TMP DP  RH WIND       PRES   REMARKS
BATTLE CREEK   CLEAR     64  60  87 CALM      30.11F
BENTON HARBOR  PTCLDY    60  60 100 CALM      30.12S
COLDWATER*     CLEAR     65  63  94 CALM      30.11S
HILLSDALE*     CLEAR     66  66 100 CALM      30.11S
HOLLAND        CLEAR     60  58  92 CALM      30.13R
GRAND RAPIDS   CLEAR     62  62 100 CALM      30.12S
KALAMAZOO      CLEAR     60  58  92 CALM      30.10F
STURGIS*       CLEAR     64  63  94 CALM      30.10F
THREE RIVERS*    N/A     64  62  96 CALM      30.11F FOG

$$
OHZ001>008-015>018-024>025-270900-
NORTHWEST OHIO

CITY           SKY/WX    TMP DP  RH WIND       PRES   REMARKS
DEFIANCE       MOCLDY    70  67  90 CALM      30.09S FOG
FINDLAY        FOG       69  67  93 CALM      30.08S VSB 1/2
TOLEDO EXPRESS PTCLDY    70  68  93 CALM      30.08S
TOLEDO METCALF CLEAR     71  66  84 N3        30.08F
LIMA           CLOUDY    71  68  90 CALM      30.09S

$$
&&


USA.gov is the U.S. government's official web portal to all federal, state and local government web resources and services.